Tracking 20712 objects as of 29-May-2020
HD Live streaming from Space Station
objects crossing your sky now

IRIDIUM 33 DEB

Track IRIDIUM 33 DEB now!
10-day predictions


NORAD ID: 37560
Int'l Code: 1997-051XV
Perigee: 694.2 km
Apogee: 829.2 km
Inclination: 86.4 °
Period: 99.9 minutes
Semi major axis: 7132 km
RCS: 0.008 m2 (small)
Launch date: September 14, 1997
Source: United States (US)
Launch site: TYURATAM MISSILE AND SPACE COMPLEX (TTMTR)

Note: This is SATELLITE DEBRIS
aabbcc
Your satellite tracking list
Your tracking list is empty




NASA's NSSDC Master Catalog

Two Line Element Set (TLE):
1 37560U 97051XV  20149.99390226  .00001998  00000-0  58110-3 0  9994
2 37560  86.3859 228.1348 0094632 189.5244 292.6671 14.41205816539830
Source of the keplerian elements: AFSPC